EW2690 Weather Reports


Display with metric or nautical units.
time (UTC)temp
F
wind
direction
speed
MPH
gust
MPH
rain 1hr
in
rain 24hr
in
rain mn
in
humidity
%
barometer
mb
20260508120320 49 252 3.0 6.0 0.00 0.00 0.00 84 1022.2
20260508120012 49 260 1.0 6.0 0.00 0.00 0.00 84 1022.2
20260508113117 47 221 2.0 5.0 0.00 0.00 0.00 85 1022.1
20260508110356 46 217 2.0 4.0 0.00 0.00 0.00 85 1022.0
20260508110025 46 202 1.0 3.0 0.00 0.00 0.00 85 1021.9
20260508103021 47 202 1.0 4.0 0.00 0.00 0.00 82 1021.5
20260508100319 47 227 2.0 4.0 0.00 0.00 0.00 81 1021.7
20260508100015 47 304 1.0 5.0 0.00 0.00 0.00 81 1021.8
20260508093017 47 298 1.0 5.0 0.00 0.00 0.00 79 1021.7
20260508090342 48 240 1.0 8.0 0.00 0.00 0.00 77 1021.8
20260508090056 48 227 2.0 8.0 0.00 0.00 0.00 77 1021.8
20260508083012 48 230 3.0 13.0 0.00 0.00 0.00 75 1021.6
20260508080331 47 211 4.0 8.0 0.00 0.00 0.00 74 1021.7
20260508080033 47 243 3.0 7.0 0.00 0.00 0.00 75 1021.6
20260508073047 47 241 2.0 5.0 0.00 0.00 0.00 77 1021.8
20260508070349 46 238 1.0 4.0 0.00 0.00 0.00 78 1021.8
20260508070048 45 238 1.0 4.0 0.00 0.00 0.00 78 1021.9
20260508063023 45 240 0.0 0.0 0.00 0.00 0.00 80 1022.0
20260508060359 45 240 1.0 2.0 0.00 0.00 0.00 77 1022.3
20260508060037 45 240 1.0 2.0 0.00 0.00 0.00 78 1022.3
20260508053013 47 202 2.0 4.0 0.00 0.00 0.00 70 1022.4
20260508050326 47 257 1.0 4.0 0.00 0.00 0.00 69 1022.7
20260508050020 47 267 2.0 5.0 0.00 0.00 0.00 69 1022.8
20260508043014 46 219 2.0 4.0 0.00 0.00 0.00 74 1022.6
20260508040311 44 196 2.0 4.0 0.00 0.00 0.00 79 1022.5
20260508040039 44 196 2.0 4.0 0.00 0.00 0.00 79 1022.5
20260508033042 42 229 2.0 4.0 0.00 0.00 0.00 82 1022.4
20260508030350 41 240 1.0 3.0 0.00 0.00 0.00 85 1022.5
20260508030043 41 279 1.0 3.0 0.00 0.00 0.00 86 1022.5
20260508023023 42 285 1.0 2.0 0.00 0.00 0.00 86 1022.6
20260508020318 43 285 1.0 2.0 0.00 0.00 0.00 80 1022.5
20260508020100 44 285 0.0 1.0 0.00 0.00 0.00 79 1022.4
20260508013019 47 285 1.0 2.0 0.00 0.00 0.00 74 1022.5
20260508010419 49 307 3.0 7.0 0.00 0.00 0.00 68 1022.3
20260508010101 49 287 2.0 3.0 0.00 0.00 0.00 67 1022.3
20260508003019 51 302 4.0 11.0 0.00 0.00 0.00 61 1022.2
20260508000359 52 273 6.0 14.0 0.00 0.00 0.00 55 1022.0
20260508000101 52 301 4.0 14.0 0.00 0.00 0.00 55 1021.9
20260507233055 54 340 7.0 20.0 0.00 0.00 0.00 52 1021.8
20260507230312 54 277 8.0 17.0 0.00 0.00 0.00 51 1021.8
20260507230052 54 285 9.0 17.0 0.00 0.00 0.00 53 1021.8
20260507223055 54 250 7.0 20.0 0.00 0.00 0.00 53 1021.9
20260507220312 55 289 8.0 19.0 0.00 0.00 0.00 51 1021.7
20260507220131 55 227 10.0 19.0 0.00 0.00 0.00 50 1021.7
20260507213029 56 296 7.0 17.0 0.00 0.00 0.00 50 1021.5
20260507210352 56 281 9.0 19.0 0.00 0.00 0.00 53 1021.3
20260507210025 56 253 9.0 19.0 0.00 0.00 0.00 52 1021.4
20260507203025 56 262 9.0 17.0 0.00 0.00 0.00 53 1021.3
20260507200424 56 319 10.0 16.0 0.00 0.00 0.00 49 1021.6
20260507200018 56 304 7.0 16.0 0.00 0.00 0.00 49 1021.7
20260507193018 56 339 7.0 18.0 0.00 0.00 0.00 51 1021.9
20260507190332 56 318 6.0 16.0 0.00 0.00 0.00 48 1022.2
20260507190035 56 350 9.0 16.0 0.00 0.00 0.00 51 1022.1
20260507183009 56 304 8.0 16.0 0.00 0.00 0.00 52 1022.2
20260507180354 56 314 8.0 16.0 0.00 0.00 0.00 52 1022.0
20260507180052 56 328 5.0 15.0 0.00 0.00 0.00 52 1022.0
20260507173048 56 293 5.0 14.0 0.00 0.00 0.00 52 1022.3
20260507170325 57 313 5.0 13.0 0.00 0.00 0.00 53 1022.2
20260507170018 57 348 6.0 13.0 0.00 0.00 0.00 49 1022.2
20260507163123 57 324 8.0 16.0 0.00 0.00 0.00 51 1022.3
20260507160312 57 344 5.0 11.0 0.00 0.00 0.00 53 1022.4
20260507160036 57 289 5.0 9.0 0.00 0.00 0.00 55 1022.4
20260507153032 56 263 7.0 12.0 0.00 0.00 0.00 54 1022.5
20260507150410 56 304 8.0 11.0 0.00 0.00 0.00 58 1022.5
20260507150328 56 304 8.0 11.0 0.00 0.00 0.00 58 1022.5
20260507150030 56 315 4.0 11.0 0.00 0.00 0.00 59 1022.5
20260507143025 55 296 5.0 10.0 0.00 0.00 0.00 58 1022.4
20260507140317 55 287 5.0 10.0 0.00 0.00 0.00 64 1022.7
20260507140056 54 306 5.0 9.0 0.00 0.00 0.00 67 1022.7
20260507133050 53 308 4.0 9.0 0.00 0.00 0.00 71 1022.8
20260507130343 51 261 3.0 8.0 0.00 0.00 0.00 75 1022.8
20260507130014 51 288 4.0 8.0 0.00 0.00 0.00 75 1022.9
20260507123055 48 267 2.0 9.0 0.00 0.00 0.00 78 1022.8